Pula, Croatia

10:17 PM CEST on September 26, 2017 (GMT +0200)
Pula

Weather History for LDPL - November, 2012

Change the Weather History Date:

Saturday, November 10, 2012

  Actual Average Record
Temperature  
Mean Temperature 52 °F -  
Max Temperature 61 °F - - ()
Min Temperature 42 °F - - ()
Degree Days  
Heating Degree Days 14    
Growing Degree Days 2 (Base 50)    
Moisture  
Dew Point 49 °F    
Average Humidity 81    
Maximum Humidity 94    
Minimum Humidity 63    
Precipitation  
Precipitation 0.00 in - - ()
Sea Level Pressure  
Sea Level Pressure 30.04 in    
Wind  
Wind Speed 5 mph ()    
Max Wind Speed 12 mph    
Max Gust Speed -    
Visibility 6.9 miles    
Events      
T = Trace of Precipitation, MM = Missing Value Source: Averaged Metar Reports

Daily Weather History Graph

Daily Weather History Graph

Search for Another Location

Airport or City:

Trip Planner

Search our weather history database for the weather conditions in past years. The results will help you decide how hot, cold, wet, or windy it might be!

Date:

Astronomy

Nov. 10, 2012 Rise Set
Actual Time 6:55 AM CET 4:40 PM CET
Civil Twilight 6:23 AM CET 5:12 PM CET
Nautical Twilight 5:48 AM CET 5:47 PM CET
Astronomical Twilight 5:14 AM CET 6:21 PM CET
Moon 2:31 AM CET (11/10) 2:25 PM CET (11/10)
Length of Visible Light 10h 48m
Length of Day
9h 45m
Waning Crescent, 16% of the Moon is Illuminated
Nov 10
Waning Crescent
Nov 13
New
Nov 20
First Quarter
Nov 28
Full
Dec 6
Last Quarter

Hourly Weather History & Observations

Time (CET) Temp. Windchill Dew Point Humidity Pressure Visibility Wind Dir Wind Speed Gust Speed Precip Events Conditions
12:00 AM 44.6 °F 43.1 °F 41.0 °F 87% 30.09 in - Variable 3.5 mph - N/A   Clear
12:30 AM 44.6 °F 42.2 °F 41.0 °F 87% 30.09 in - ENE 4.6 mph - N/A   Clear
1:00 AM 45 °F - 43 °F 89% 30.11 in 6 mi ENE 2.2 mph - -   Clear
1:00 AM 44.6 °F 43.1 °F 42.8 °F 93% 30.09 in - Variable 3.5 mph - N/A   Clear
1:30 AM 44.6 °F 43.1 °F 42.8 °F 93% 30.09 in - Variable 3.5 mph - N/A   Clear
2:00 AM 44.6 °F - 42.8 °F 93% 30.09 in - Variable 2.3 mph - N/A   Clear
2:30 AM 46.4 °F - 42.8 °F 87% 30.09 in - Variable 2.3 mph - N/A   Clear
3:00 AM 46.4 °F 45.2 °F 44.6 °F 93% 30.06 in - Variable 3.5 mph - N/A   Clear
3:30 AM 46.4 °F 45.2 °F 42.8 °F 87% 30.06 in - Variable 3.5 mph - N/A   Clear
4:00 AM 47 °F - 44 °F 83% 30.09 in 6 mi ENE 4.5 mph - -   Partly Cloudy
4:00 AM 46.4 °F 44.3 °F 42.8 °F 87% 30.06 in - ENE 4.6 mph - N/A   Clear
4:30 AM 46.4 °F 44.3 °F 42.8 °F 87% 30.06 in - ENE 4.6 mph - N/A   Clear
5:00 AM 47 °F - 44 °F 86% 30.07 in 6 mi ENE 4.5 mph - -   Clear
5:00 AM 48.2 °F - 44.6 °F 87% 30.06 in - Variable 3.5 mph - N/A   Clear
5:30 AM 48.2 °F - 44.6 °F 87% 30.06 in - Variable 3.5 mph - N/A   Clear
6:00 AM 48 °F - 44 °F 83% 30.07 in 6 mi ENE 4.5 mph - -   Clear
6:00 AM 48.2 °F - 44.6 °F 87% 30.06 in - Variable 3.5 mph - N/A   Clear
6:30 AM 50.0 °F - 46.4 °F 87% 30.06 in - East 5.8 mph - N/A   Clear
7:00 AM 49 °F - 46 °F 85% 30.08 in 6 mi East 6.7 mph - -   Clear
7:00 AM 50.0 °F - 46.4 °F 87% 30.06 in - East 6.9 mph - N/A   Clear
7:30 AM 50.0 °F - 48.2 °F 94% 30.06 in - East 5.8 mph - N/A   Clear
8:00 AM 51.8 °F - 48.2 °F 88% 30.06 in - East 6.9 mph - N/A   Clear
8:30 AM 53.6 °F - 50.0 °F 88% 30.09 in - East 5.8 mph - N/A   Clear
9:00 AM 53.6 °F - 50.0 °F 88% 30.09 in 6.2 mi ENE 4.6 mph - N/A   Scattered Clouds
9:30 AM 55.4 °F - 50.0 °F 82% 30.09 in 6.2 mi East 8.1 mph - N/A   Scattered Clouds
10:00 AM 58 °F - 51 °F 70% 30.10 in 12 mi East 8.9 mph - -   Scattered Clouds
10:00 AM 57.2 °F - 51.8 °F 82% 30.09 in 6.2 mi East 8.1 mph - N/A   Partly Cloudy
10:30 AM 57.2 °F - 50.0 °F 77% 30.09 in 6.2 mi East 10.4 mph - N/A   Partly Cloudy
11:00 AM 59.0 °F - 51.8 °F 77% 30.06 in 6.2 mi ENE 11.5 mph - N/A   Scattered Clouds
11:30 AM 57.2 °F - 51.8 °F 82% 30.06 in 6.2 mi ENE 9.2 mph - N/A   Scattered Clouds
12:00 PM 59.0 °F - 51.8 °F 77% 30.06 in 6.2 mi East 11.5 mph - N/A   Partly Cloudy
12:30 PM 59.0 °F - 51.8 °F 77% 30.06 in 6.2 mi East 10.4 mph - N/A   Scattered Clouds
1:00 PM 59 °F - 52 °F 71% 30.05 in 12 mi East 8.9 mph - -   Partly Cloudy
1:00 PM 59.0 °F - 51.8 °F 77% 30.04 in 6.2 mi East 10.4 mph - N/A   Scattered Clouds
1:30 PM 59.0 °F - 51.8 °F 77% 30.04 in 6.2 mi East 10.4 mph - N/A   Scattered Clouds
2:00 PM 59.0 °F - 51.8 °F 77% 30.04 in 6.2 mi East 9.2 mph - N/A   Scattered Clouds
2:30 PM 59.0 °F - 51.8 °F 77% 30.01 in 6.2 mi East 10.4 mph - N/A   Scattered Clouds
3:00 PM 60.8 °F - 53.6 °F 77% 30.01 in 6.2 mi East 6.9 mph - N/A   Mostly Cloudy
3:30 PM 59.0 °F - 53.6 °F 82% 30.01 in 6.2 mi East 6.9 mph - N/A   Mostly Cloudy
4:00 PM 60 °F - 53 °F 69% 30.02 in 12 mi East 6.7 mph - -   Mostly Cloudy
4:00 PM 59.0 °F - 51.8 °F 77% 30.01 in 6.2 mi East 6.9 mph - N/A   Mostly Cloudy
4:30 PM 59.0 °F - 51.8 °F 77% 30.01 in 6.2 mi ESE 5.8 mph - N/A   Mostly Cloudy
5:00 PM 59.0 °F - 51.8 °F 77% 30.01 in 6.2 mi East 6.9 mph - N/A   Mostly Cloudy
5:30 PM 60.8 °F - 53.6 °F 77% 30.01 in 6.2 mi ESE 5.8 mph - N/A   Mostly Cloudy
6:00 PM 60.8 °F - 51.8 °F 72% 29.98 in 6.2 mi ESE 6.9 mph - N/A   Scattered Clouds
6:30 PM 60.8 °F - 53.6 °F 77% 29.98 in 6.2 mi SE 6.9 mph - N/A   Scattered Clouds
7:00 PM 61 °F - 53 °F 66% 30.00 in 12 mi SE 6.7 mph - -   Partly Cloudy
7:00 PM 60.8 °F - 51.8 °F 72% 29.98 in 6.2 mi SE 5.8 mph - N/A   Scattered Clouds
7:30 PM 60.8 °F - 53.6 °F 77% 29.98 in 6.2 mi SE 5.8 mph - N/A   Partly Cloudy
8:00 PM 60.8 °F - 53.6 °F 77% 29.98 in 6.2 mi ESE 6.9 mph - N/A   Scattered Clouds
8:30 PM 60.8 °F - 55.4 °F 82% 29.98 in 6.2 mi ESE 6.9 mph - N/A   Mostly Cloudy
9:00 PM 60.8 °F - 53.6 °F 77% 29.98 in 6.2 mi ESE 9.2 mph - N/A   Mostly Cloudy
9:30 PM 60.8 °F - 51.8 °F 72% 29.98 in 6.2 mi East 8.1 mph - N/A   Mostly Cloudy
10:00 PM 61 °F - 52 °F 63% 29.99 in 12 mi ESE 8.9 mph - -   Mostly Cloudy
10:00 PM 60.8 °F - 51.8 °F 72% 29.98 in 6.2 mi ESE 9.2 mph - N/A   Mostly Cloudy
10:30 PM 60.8 °F - 53.6 °F 77% 29.95 in 6.2 mi East 10.4 mph - N/A   Scattered Clouds
11:00 PM 60.8 °F - 53.6 °F 77% 29.95 in 6.2 mi East 9.2 mph - N/A   Scattered Clouds
11:30 PM 60.8 °F - 53.6 °F 77% 29.95 in 6.2 mi ESE 10.4 mph - N/A   Scattered Clouds